COSMOS 1275 DEB, 12676

Orbit data source: Space-Track

COSMOS 1275 DEB, 12676 is space debris in LEO originally from a launch on Thu, 04 Jun 1981 UTC launched from the Plesetsk Missile And Space Complex (PKMTR). Debris objects in space refer to the collection of defunct objects orbiting the Earth. Examples of debris include non-operational satellites, rocket bodies, and fragments generated from explosions, collisions, or faulty payload assembly.

Loading next visibility...
Identifier
12676, 1981-053AG
Orbit
LEO
Country
Flag of CISCIS
Related business
Manufacturer
Unknown
Mission
Spacecraft
Bus & Motor
Unknown
Mass
Unknown
Launch date (UTC)
1981-06-04 (45 years ago)
Launch vehicle
Unknown
Launch site
Plesetsk Missile And Space Complex (PKMTR)
Object type
Payload
Rocket body
Debris
Shape & HBR
Unknown shape, 0.6 m
Radar Cross Section
Medium (>0.1 m² and <1 m²)

Expand to show TLE details & history
Last TLE update: 10 hours ago

TLE from 10 hours ago
0 COSMOS 1275 DEB
1 12676U 81053AG  26236.28923905  .00000382  00000-0  31189-3 0  9994
2 12676  82.9403  69.0892 0042356 265.3345 216.6788 13.86880586270169
Epoch: 2026-08-24T06:56Z
TLE epoch observation values (Epoch: 2026-08-24T06:56:30.253Z)
Latitude
57.67539°
Longitude
161.16309°
Altitude
974.197 km
Speed
7.357 km/s
True Right ascension
15h 51m 26s
True Declination
57° 31' 28"
Sunlit
Object was in daylight at epoch
Visualization orbit readout
Latitude
Unknown
Longitude
Unknown
Altitude
Unknown
Speed
Unknown
Apparent Right ascension
Unknown
Apparent Declination
Unknown
Sunlit
N/A
Visualization observer readout
Local Sidereal Time
08:20:56
Azimuth
Unknown
Elevation
Unknown
Doppler factor
Unknown
Orbital elements
Apogee altitude
967.698 km
Perigee altitude
905.733 km
Semi-major axis
7,314.853 km
Eccentricity
0.00424
Inclination
82.9403°
RAAN
69.0892°
Arg. of periapsis
265.3345°
True anomaly
216.39011°
Mean anomaly
216.6788°
Eccentric anomaly
216.53433°
Mean motion
3.46924 °/min
Orbital period
103.77 mins
BSTAR
0.00031189
Loading maneuver chart data...
Computing Atmospheric mass density...
Loading historical data...
Loading historical data...
Loading historical data...
Loading historical data...
Loading historical data...
Loading historical data...
Loading historical data...

Documentation

Showing up to 5 results
|